This is the latest recevied weather packets stored in our database for station/object WE0DX-1. If no packets are shown the sender has not sent any weather packets the latest 10 day(s).
| Time | Temp. | Humidity | Pressure | Rain* | Wind** | Luminosity | Snow |
|---|---|---|---|---|---|---|---|
| 1778054909 | 7.22° C | 92% | 1014.4 hPa | 0 mm | - | 0 W/m² | - |
| 1778054606 | 7.22° C | 92% | 1014.2 hPa | 0 mm | - | 0 W/m² | - |
| 1778054304 | 7.22° C | 92% | 1014.1 hPa | 0 mm | - | 0 W/m² | - |
| 1778054001 | 7.22° C | 92% | 1014.1 hPa | 0 mm | - | 0 W/m² | - |
| 1778053698 | 7.22° C | 91% | 1013.7 hPa | 0 mm | - | 0 W/m² | - |
| 1778053395 | 7.22° C | 90% | 1014 hPa | 0 mm | - | 0 W/m² | - |
| 1778053093 | 7.22° C | 91% | 1013.7 hPa | 0 mm | - | 0 W/m² | - |
| 1778052790 | 7.22° C | 89% | 1014.2 hPa | 0 mm | - | 0 W/m² | - |
| 1778052487 | 7.22° C | 86% | 1013.9 hPa | 0 mm | - | 0 W/m² | - |
| 1778052185 | 7.22° C | 86% | 1013.7 hPa | 0 mm | - | 0 W/m² | - |
| 1778051882 | 7.22° C | 86% | 1013.7 hPa | 0 mm | - | 0 W/m² | - |
| 1778051579 | 7.22° C | 85% | 1013.7 hPa | 0 mm | - | 0 W/m² | - |
| 1778051276 | 7.22° C | 86% | 1013.5 hPa | 0 mm | - | 0 W/m² | - |
| 1778050973 | 7.22° C | 88% | 1013.5 hPa | 0 mm | - | 0 W/m² | - |
| 1778050671 | 7.22° C | 89% | 1013.7 hPa | 0 mm | - | 0 W/m² | - |
| 1778050368 | 7.22° C | 87% | 1014.2 hPa | 0 mm | - | 0 W/m² | - |
| 1778050059 | 7.22° C | 83% | 1014.3 hPa | 0 mm | - | 0 W/m² | - |
| 1778049755 | 7.22° C | 86% | 1014.3 hPa | 0 mm | - | 0 W/m² | - |
| 1778049453 | 7.22° C | 90% | 1014.1 hPa | 0 mm | - | 0 W/m² | - |
| 1778049150 | 7.22° C | 89% | 1014.1 hPa | 0 mm | - | 0 W/m² | - |
| 1778048848 | 7.22° C | 91% | 1014.4 hPa | 0 mm | - | 0 W/m² | - |
| 1778048545 | 7.22° C | 87% | 1014.5 hPa | 0 mm | - | 0 W/m² | - |
| 1778048240 | 7.78° C | 85% | 1014.8 hPa | 0 mm | - | 0 W/m² | - |
| 1778047938 | 7.22° C | 84% | 1014.9 hPa | 0 mm | - | 0 W/m² | - |
| 1778047637 | 7.22° C | 87% | 1014.9 hPa | 0 mm | - | 0 W/m² | - |
* Rain latest hour (hover to see other rain measurements)
** Current wind speed in m/s (hover to see current wind gust speed)